Regional Weather Roundup
Issued by NWS

Home | Current Version | Previous Version | Graphics & Text | Print | Product List | Glossary Off
Versions: 1 2 3 4 5 6 7 8 9 10 11 12 13 14 15 16 17 18 19 20 21 22 23 24 25 26 27 28 29 30 31 32 33 34 35 36 37 38 39 40 41 42 43 44 45 46 47 48 49 50

000
ASUS43 KMKX 010800
RWRWI

WISCONSIN REGIONAL WEATHER ROUNDUP
NATIONAL WEATHER SERVICE MILWAUKEE/SULLIVAN WI
300 AM CDT TUE SEP 01 2015

NOTE: "FAIR" INDICATES FEW OR NO CLOUDS BELOW 12,000 FEET WITH NO
SIGNIFICANT WEATHER AND/OR OBSTRUCTIONS TO VISIBILITY.

WIZ001-002-006>008-014>016-023>028-010900-
NORTHWEST WISCONSIN

CITY           SKY/WX    TMP DP  RH WIND       PRES   REMARKS
SUPERIOR ARPT  CLOUDY    71  70  96 SW3       29.86F
ASHLAND        CLEAR     72  71  97 S8        29.90S
HAYWARD        PTCLDY    72  70  93 S6        29.93S
SIREN          PTCLDY    71  69  94 S6        29.91S FOG
CUMBERLAND     CLOUDY    68  68 100 S5        29.94S FOG
RICE LAKE        N/A     66  65  96 S3        29.95S FOG
CHETEK         CLEAR    N/A N/A N/A CALM      29.94F FOG
LADYSMITH      CLEAR     70  69  95 S3        29.97F FOG
EAU CLAIRE     NOT AVBL
MENOMONIE      FOG       68  68  99 E3        29.94S VSB 1
NEW RICHMOND   CLEAR     70  69  97 S5        29.93F FOG
OSCEOLA        PTCLDY    71  71 100 S5        29.94S FOG
$$

WIZ003>005-009-010-017-018-010900-
NORTH CENTRAL WISCONSIN

CITY           SKY/WX    TMP DP  RH WIND       PRES   REMARKS
MANITOWISH WTR PTCLDY    66  66 100 CALM      29.97S FOG
ARBOR VITAE    PTCLDY    69  68  95 SW6       29.98S FOG
WOODRUFF       PTCLDY    69  68  95 SW6       29.98S FOG
RHINELANDER    PTCLDY    69  67  93 SW7       30.00S FOG
EAGLE RIVER    PTCLDY    67  67  99 SW5       29.98F FOG
LAND O LAKES     N/A     66  66  99 CALM      29.99S FOG
PHILLIPS       PTCLDY    67  67 100 S3        29.97S FOG
TOMAHAWK       CLEAR     66  65  96 CALM      30.00S FOG
MEDFORD        MOCLDY    67  67 100 S6        29.99F FOG
MERRILL        PTCLDY    61  61 100 CALM      30.00S FOG
$$

WIZ029-030-035-036-043>047-010900-
CENTRAL WISCONSIN

CITY           SKY/WX    TMP DP  RH WIND       PRES   REMARKS
WAUSAU         CLEAR     68  66  93 S6        29.98S FOG
MOSINEE        CLEAR     64  64 100 S5        30.01S FOG
MARSHFIELD     FOG       66  63  90 S5        29.98F VSB 1/4
STEVENS POINT  CLEAR     65  64  97 CALM      30.00S FOG
WAUPACA        FOG       65  64  97 CALM      30.00S VSB 1
WAUTOMA        NOT AVBL
WISC RAPIDS    CLEAR     69  65  86 S3        29.99F
CAMP DOUGLAS   CLEAR     69  69 100 SE6       29.97F
$$

WIZ011>013-019>022-031-037>040-048>050-010900-
NORTHEAST WISCONSIN

CITY           SKY/WX    TMP DP  RH WIND       PRES   REMARKS
ANTIGO         CLEAR     66  65  97 SW7       30.01F FOG
SHAWANO        CLEAR     68  67  94 CALM      29.99S FOG
OCONTO         CLEAR     64  64 100 CALM      29.99S
STURGEON BAY   CLEAR     66  63  88 S10       30.02S
GREEN BAY      CLEAR     66  64  93 S5        30.00S FOG
MANITOWOC      NOT AVBL
APPLETON       CLEAR     64  64 100 CALM      29.99F FOG
CLINTONVILLE   CLOUDY    63  61  94 CALM      29.99F FOG
OSHKOSH        CLEAR     67  65  93 S8        30.00S FOG
$$

WIZ032>034-041-042-053>061-010900-
SOUTHWEST WISCONSIN

CITY           SKY/WX    TMP DP  RH WIND       PRES   REMARKS
LA CROSSE      CLEAR     72  70  93 S7        29.94F
SPARTA         CLEAR     66  65  95 CALM      29.97F FOG
VIROQUA          N/A     69  69 100 CALM      30.00S
BOSCOBEL       PTCLDY    70  67  90 CALM      29.97S FOG
PRAIRIE DU CHI PTCLDY    72  68  88 CALM      29.97S
PLATTEVILLE    PTCLDY    71  70  96 SE6       30.00S
$$

WIZ056-057-062-063-064-067-068-010900-
SOUTH CENTRAL WISCONSIN

CITY           SKY/WX    TMP DP  RH WIND       PRES   REMARKS
REEDSBURG      PTCLDY    73  69  89 S6        29.98F
BARABOO/DELLS  CLEAR     69  65  89 S7        30.00S
LONE ROCK      NOT AVBL
MINERAL POINT  CLEAR     72  70  94 SE7       30.01F FOG
MADISON        CLEAR     69  67  93 CALM      30.00F FOG
MIDDLETON      CLEAR     72  70  94 CALM      30.01F
WATERTOWN      CLEAR     67  67 100 CALM      30.02S FOG
MONROE         PTCLDY    70  68  94 S8        30.02S
JANESVILLE     CLEAR     70  68  94 CALM      30.01S FOG
$$

WIZ051-052-058>065-066-070>072-010900-
SOUTHEAST WISCONSIN

CITY           SKY/WX    TMP DP  RH WIND       PRES   REMARKS
MILWAUKEE      CLEAR     68  65  90 S5        30.02F
WAUKESHA       CLEAR     66  64  94 S3        30.04S FOG
MILWAUKEE/TIMM CLEAR     66  63  88 CALM      30.03F FOG
RACINE         CLEAR     68  65  90 S3        30.04S FOG
BURLINGTON     FOG       60  60  99 CALM      30.03S VSB 1/4
KENOSHA        CLEAR     66  65  96 CALM      30.03S
FOND DU LAC    FOG       67  66  97 S6        30.01S VSB 1/2
SHEBOYGAN      CLEAR     61  61 100 CALM      30.02S FOG
WEST BEND      FOG       63  63 100 CALM      30.03S VSB 3/4
JUNEAU         FOG       66  66  99 SE3       30.03F VSB 3/4
$$

LSZ147-162-010900-
LAKE SUPERIOR

STATION/POSITION TIME  TEMP    WIND        PRES    WAVE
                       AIR SEA DIR/SP/G            HT/PER
                 (UTC) (F)     (DEG/KT/KT) (MB)    (FT/S)
W MID LAKE BUOY  0650   62 54  200/ 14/ 14 1011.1R   1/ 3
DEVILS ISLAND    0700   67     220/  5/  6 1011.4R
PORT WING        0700   74     190/  7/ 11 1011.9R
SAXON HARBOR     0700   74     190/  4/  9 1011.9
$$

LMZ867-665-643>646-010900-
LAKE MICHIGAN

STATION/POSITION TIME  TEMP    WIND        PRES    WAVE
                       AIR SEA DIR/SP/G            HT/PER
                 (UTC) (F)     (DEG/KT/KT) (MB)    (FT/S)
CHAMBERS ISLAND  0700   67     180/  5/ 10 1015.6S
S GREEN BAY BUOY 0700   67 64  190/  8/ 10 1017.0S
N MID LAKE BUOY  0650   64 65  210/ 16/ 19 1015.1F   3/ 4
NORTHPORT PIER   0700   64     170/  5/  8 1015.6S
KEWAUNEE LAKESHO 0700   51     170/  4/  5   N/A
SHEBOYGAN LAKESH 0700   63     200/  5/  6 1016.8F
PORT WASHINGTON  0700   56      CALM  /  1 1017.3F
ATWATER BUOY     0700   59 51  160/  4/  4 1018.0F
MILWAUKEE LAKESH 0710   64     170/  2/  2   N/A
S MID LAKE BUOY  0650   71 69  150/  8/  8 1016.8F   0
KENOSHA   LAKESH 0700   70     180/  3/  4 1016.6F
$$

TC  - TEMPERATURE IN CELSIUS
VSB - VISIBILITY IN STATUTE MILES
WCI - WIND CHILL INDEX
HX  - HEAT INDEX




USA.gov is the U.S. government's official web portal to all federal, state and local government web resources and services.